OAO 2 Rocket - Orbit

View from above orbital plane
View from above orbital plane
View from above satellite
View from above satellite

Ground track
Ground track

The orbit data is extracted from the following two-line orbital elements,

1 03598U 68110B   13137.42263434  .00000542  00000-0  13198-3 0  3400
2 03598 034.9933 115.3243 0049697 014.8843 121.6238 14.53170368349254
Epoch (UTC): 17 May 2013 10:08:35
Eccentricity: 0.0049697
inclination: 34.9933°
perigee height: 680 km
apogee height: 750 km
right ascension of ascending node: 115.3243°
argument of perigee: 14.8843°
revolutions per day: 14.53170368
mean anomaly at epoch: 121.6238°
orbit number at epoch: 34925

The dashed part of the orbit path shows where the satellite is in the earth's shadow,  

Developed and maintained by Chris Peat, Heavens-Above GmbH. Please read the updated FAQ before sending e-mail. Imprint. DLR